TVARMINN Weather Reports


time (UTC)temp
F
wind
direction
speed
knots
gust
knots
rain 1hr
in
rain 24hr
in
rain mn
in
humidity
%
barometer
mb
20260503224714 46 0.0 0.0 0.00 0.00 0.00 71 1007.9
20260503222713 45 0.0 0.0 0.00 0.00 0.00 73 1007.9
20260503220713 44 0.0 0.0 0.00 0.00 0.00 74 1008.0
20260503214713 44 0.0 0.0 0.00 0.00 0.00 74 1008.2
20260503212712 44 0.0 0.0 0.00 0.00 0.00 75 1008.2
20260503210713 44 0.0 0.0 0.00 0.00 0.00 75 1008.2
20260503204713 45 0.0 0.0 0.00 0.00 0.00 77 1008.2
20260503202713 44 0.0 0.0 0.00 0.00 0.00 79 1008.2
20260503200713 45 0.0 0.0 0.00 0.00 0.00 77 1008.2
20260503194712 45 0.0 0.0 0.00 0.00 0.00 78 1008.3
20260503192712 46 0.0 0.0 0.00 0.00 0.00 77 1008.2
20260503190712 47 0.0 0.0 0.00 0.00 0.00 76 1008.4
20260503184713 47 0.0 0.0 0.00 0.00 0.00 74 1008.3
20260503182712 49 0.0 0.0 0.00 0.00 0.00 72 1008.2
20260503180712 49 0.0 0.0 0.00 0.00 0.00 70 1008.1
20260503174712 50 0.0 0.0 0.00 0.00 0.00 69 1008.1
20260503172718 50 0.0 0.0 0.00 0.00 0.00 68 1008.1
20260503170712 50 0.0 0.0 0.00 0.00 0.00 67 1008.2
20260503150711 53 0.0 0.0 0.00 0.00 0.00 70 1008.7
20260503130711 50 0.0 0.0 0.00 0.00 0.00 76 1009.0
20260503110710 53 0.0 0.0 0.00 0.00 0.00 69 1008.9
20260503080710 50 0.0 0.0 0.00 0.00 0.00 76 1008.7
20260503072710 50 0.0 0.0 0.00 0.00 0.00 73 1008.2
20260503070710 49 0.0 0.0 0.00 0.00 0.00 74 1007.9
20260503054710 47 0.0 0.0 0.00 0.00 0.00 83 1007.2
20260503052709 46 0.0 0.0 0.00 0.00 0.00 85 1007.2
20260503050709 46 0.0 0.0 0.00 0.00 0.00 86 1007.0
20260503044709 45 0.0 0.0 0.00 0.00 0.00 87 1006.8
20260503042709 44 0.0 0.0 0.00 0.00 0.00 88 1006.7
20260503040709 44 0.0 0.0 0.00 0.00 0.00 90 1006.3
20260503034709 43 0.0 0.0 0.00 0.00 0.00 91 1006.3
20260503032709 43 0.0 0.0 0.00 0.00 0.00 91 1006.1
20260503030710 42 0.0 0.0 0.00 0.00 0.00 94 1005.9
20260503024710 41 0.0 0.0 0.00 0.00 0.00 93 1006.0
20260503022709 41 0.0 0.0 0.00 0.00 0.00 94 1005.9
20260503020709 42 0.0 0.0 0.00 0.00 0.00 91 1005.9
20260503014709 42 0.0 0.0 0.00 0.00 0.00 92 1005.8
20260503012709 42 0.0 0.0 0.00 0.00 0.00 91 1005.9
20260503010709 42 0.0 0.0 0.00 0.00 0.00 92 1005.9
20260503004709 42 0.0 0.0 0.00 0.00 0.00 90 1006.1
20260503002709 43 0.0 0.0 0.00 0.00 0.00 90 1006.2
20260503000709 43 0.0 0.0 0.00 0.00 0.00 90 1006.4
20260502234709 43 0.0 0.0 0.00 0.00 0.00 89 1006.6
20260502232709 43 0.0 0.0 0.00 0.00 0.00 89 1006.7
20260502230709 43 0.0 0.0 0.00 0.00 0.00 88 1007.0